Regional Weather Roundup
Issued by NWS Sioux Falls, SD

Home | Current Version | Previous Version | Text Only | Print | Product List | Glossary Off
Versions: 1 2 3 4 5 6 7 8 9 10 11 12 13 14 15 16 17 18 19 20 21 22 23 24 25 26 27 28 29 30 31 32 33 34 35 36 37 38 39 40 41 42 43 44 45 46 47 48 49 50

000
ASUS43 KFSD 251602
RWRFSD

WEATHER ROUNDUP FOR SE SOUTH DAKOTA/SW MINNESOTA/NW IOWA
NATIONAL WEATHER SERVICE SIOUX FALLS SD
1100 AM CDT MON JUL 25 2016

NOTE: "FAIR" INDICATES FEW OR NO CLOUDS BELOW 12,000 FEET WITH NO
SIGNIFICANT WEATHER AND OR OBSTRUCTIONS TO VISIBILITY.


SDZ038>040-050-052>070-251700-
SOUTHEAST SOUTH DAKOTA

CITY           SKY/WX    TMP DP  RH WIND       PRES   REMARKS
BROOKINGS      SUNNY     80  65  59 SW6       30.13S
CHAMBERLAIN    SUNNY     83  60  44 S12       30.10F
HURON          SUNNY     83  61  47 S14       30.09S
MADISON        FAIR      77  64  65 SW9       30.14S
MITCHELL       SUNNY     83  61  47 S8        30.12S
SIOUX FALLS    MOSUNNY   79  62  56 SW5       30.13S
WINNER         FAIR      86  45  23 S20G25    30.12F
YANKTON        SUNNY     81  61  50 S7        30.12F
$$

MNZ071-072-080-081-089-090-097-098-251700-
SOUTHWEST MINNESOTA

CITY           SKY/WX    TMP DP  RH WIND       PRES   REMARKS
FAIRMONT       SUNNY     79  61  53 NW5       30.10
JACKSON        SUNNY     77  59  53 CALM      30.14S
LUVERNE        SUNNY     77  64  65 SW7       30.14S
MARSHALL       SUNNY     80  63  55 S3        30.11S
MONTEVIDEO     SUNNY     81  70  69 SW3       30.11S
REDWOOD FALLS  SUNNY     79  59  50 CALM      30.09F
WINDOM         SUNNY     79  61  53 CALM      30.12S
WORTHINGTON    SUNNY     79  61  53 CALM      30.14S
$$

IAZ001>003-012>014-020>022-031-032-NEZ013-014-SDZ071-251700-
NORTHWEST IOWA

CITY           SKY/WX    TMP DP  RH WIND       PRES   REMARKS
CHEROKEE       SUNNY     79  64  60 CALM      30.14S
DENISON        SUNNY     79  64  61 CALM      30.12R
ESTHERVILLE    SUNNY     77  64  64 W5        30.12S
LE MARS        SUNNY     81  61  50 S5        30.14F
SHELDON        SUNNY     77  64  65 VRB5      30.13S
SIOUX CITY     SUNNY     82  62  50 VRB3      30.14R
SPENCER        SUNNY     79  61  53 W5        30.14R
STORM LAKE     SUNNY     79  64  61 CALM      30.15S
$$

ABBREVIATIONS USED IN REMARKS
   TC - TEMPERATURE IN CELSIUS
  WCI - WIND CHILL INDEX
   HX - HEAT INDEX
  VSB - VISIBILITY





USA.gov is the U.S. government's official web portal to all federal, state and local government web resources and services.